Cloud_Cover
2 2 14 5 29 40 78 95 100 100 99 46 18 83 62 98 100 100 100 96 41 10 73 40 36 28 4 15 68 24 1 1 0 0 1 8 0 0 0 0 1 11 11 4 5 11 10 0 0
0 2 3 72 74 100 93 47 100 100 100 100 75 24 46 68 97 99 100 95 72 30 18 82 5 5 5 1 20 14 9 5 5 3 12 7 0 0 0 1 11 6 1 2 4 2 0 0 0
0 0 0 4 83 100 100 96 92 100 100 100 100 100 100 100 100 100 100 94 92 50 32 6 5 3 5 0 9 14 2 2 5 7 10 11 6 1 6 16 10 18 1 0 0 0 0 0 0
0 0 0 0 97 5 18 16 82 86 100 100 100 100 100 100 31 82 100 100 6 5 5 21 2 0 1 0 0 4 0 8 10 52 43 16 10 17 20 15 11 0 0 0 0 0 0 0 0
0 0 0 0 2 0 5 5 5 18 100 100 100 100 54 50 98 96 25 49 28 5 4 2 3 15 3 0 0 0 1 8 12 20 36 36 9 5 24 5 1 0 0 0 0 0 0 1 5
0 0 0 1 2 0 4 5 3 33 40 100 48 85 14 5 5 4 35 51 13 3 1 0 51 4 0 0 5 15 94 100 95 51 57 17 9 15 8 1 0 1 2 3 1 4 5 2 4
5 5 3 5 2 4 39 5 5 5 5 7 5 4 4 2 1 2 2 2 4 4 5 5 5 6 12 94 54 92 54 42 12 1 5 10 13 5 5 1 2 0 0 3 0 0 0 0 0
0 0 1 0 0 46 7 5 2 13 5 5 31 29 9 7 16 5 5 5 5 5 5 4 5 5 5 41 6 11 20 18 6 5 3 4 0 0 0 0 0 0 0 0 0 0 0 0 0
0 1 4 5 4 0 0 1 0 0 0 0 4 100 82 96 100 100 71 18 25 25 55 5 38 70 100 100 92 100 100 98 15 16 5 1 4 4 0 0 0 0 0 0 0 0 0 0 0
0 0 5 3 1 2 0 4 22 5 2 0 0 13 71 50 8 73 100 100 100 100 93 69 100 80 93 99 93 17 7 5 5 5 60 8 11 5 2 0 0 0 0 0 0 0 0 0 0
0 0 5 0 0 0 4 38 89 5 1 0 0 0 0 0 0 0 2 2 38 6 5 6 16 17 100 96 100 99 100 99 65 56 35 29 6 5 5 5 0 0 0 0 0 0 0 0 0
0 0 3 0 0 0 0 5 5 2 1 0 0 0 0 0 0 0 0 0 0 0 0 0 0 0 1 5 16 99 9 0 0 0 1 18 3 0 0 0 0 0 0 0 0 0 0 0 0
0 0 0 0 0 0 0 1 3 0 0 0 0 0 0 0 0 0 0 0 0 0 0 0 0 0 0 0 0 0 0 0 0 0 0 0 0 0 0 0 0 3 0 1 0 4 5 0 0
0 0 0 0 0 3 0 0 0 5 0 0 0 0 0 0 0 0 0 0 0 0 0 0 0 0 0 0 0 0 0 0 0 0 0 0 0 0 0 0 0 4 0 0 0 0 3 3 4
0 0 0 0 0 4 0 0 0 0 0 0 0 0 0 0 0 0 0 0 0 0 0 0 0 0 0 0 0 0 0 0 0 0 0 0 0 4 5 5 5 8 15 0 2 3 11 21 63
0 0 0 0 0 1 1 0 4 0 0 0 0 0 0 0 0 0 0 0 0 0 0 8 0 0 0 0 0 0 0 0 0 0 0 3 5 6 5 5 5 46 98 42 86 46 24 100 100
0 0 0 0 0 0 0 0 0 2 0 0 0 0 0 0 0 0 0 0 0 0 0 0 0 0 0 0 0 0 0 0 0 0 0 0 0 0 3 3 32 28 1 59 36 73 100 62 55
0 0 1 0 0 0 0 0 0 0 0 0 0 0 0 0 0 0 0 0 0 0 0 0 0 0 0 0 0 0 0 0 0 0 0 0 3 1 0 1 16 7 0 12 23 12 56 12 26
0 2 5 0 0 0 1 0 0 0 0 0 0 0 0 0 0 0 0 0 0 0 0 0 0 0 0 0 0 0 0 0 0 0 0 1 17 27 23 26 56 24 43 48 49 60 57 34 66
0 0 0 0 0 0 0 3 0 0 0 0 0 0 4 15 0 0 0 0 0 0 0 0 0 0 0 0 0 0 0 0 0 0 24 33 41 67 82 75 80 96 99 78 97 65 6 50 4
0 0 0 0 0 0 0 4 0 0 0 0 0 0 3 5 5 0 0 0 0 0 0 0 0 0 0 0 0 0 0 36 22 33 68 100 100 92 77 92 88 55 5 22 1 0 0 0 0
0 0 0 0 0 0 4 4 0 0 0 0 0 0 0 1 1 0 0 0 0 0 0 0 0 0 0 0 0 0 0 0 0 4 33 68 88 46 51 6 22 0 0 0 0 0 0 0 0
1 5 0 0 0 0 0 2 6 0 0 0 0 0 0 0 0 0 0 0 0 0 0 0 0 0 0 0 0 0 0 0 49 98 100 100 100 98 74 5 0 0 0 0 0 0 0 0 0
4 5 1 1 0 0 0 1 96 4 3 0 0 0 0 0 0 0 0 0 0 0 0 5 6 5 0 2 0 0 44 26 100 100 100 100 100 100 7 3 0 0 0 0 0 0 0 0 0
5 5 5 0 0 0 0 0 41 27 0 7 1 0 1 0 0 0 0 0 0 0 0 5 5 5 8 16 5 3 16 60 100 100 100 100 100 100 5 1 0 0 3 2 0 0 0 0 0
1 5 0 0 0 0 4 0 0 4 0 0 0 0 0 0 2 7 4 5 2 3 3 0 20 84 6 5 14 52 75 82 100 100 100 100 100 100 95 73 3 5 5 0 0 0 0 0 0
0 0 1 0 0 0 0 0 1 8 1 0 0 0 0 0 0 0 4 1 5 11 11 78 100 100 81 58 96 100 60 41 100 100 100 100 100 100 100 68 36 14 8 26 0 0 0 0 0
5 0 0 2 3 0 4 2 28 27 5 0 0 1 5 4 1 3 1 1 5 85 100 100 100 100 100 93 99 100 89 43 51 97 100 100 100 100 100 100 100 100 32 83 4 3 0 0 0
0 0 0 0 0 0 1 16 4 5 2 0 0 1 5 5 5 6 17 13 70 99 100 100 100 100 95 96 100 100 100 84 94 100 100 100 100 100 100 96 95 100 75 82 98 99 100 16 5
0 0 0 0 0 0 0 15 5 2 0 0 0 0 0 1 4 5 6 58 98 97 100 100 100 100 100 100 100 99 100 100 100 56 75 57 100 100 100 95 98 100 100 99 63 67 65 86 30